Regional Weather Roundup
Issued by NWS

Home | Current Version | Previous Version | Text Only | Print | Product List | Glossary On
Versions: 1 2 3 4 5 6 7 8 9 10 11 12 13 14 15 16 17 18 19 20 21 22 23 24 25 26 27 28 29 30 31 32 33 34 35 36 37 38 39 40 41 42 43 44 45 46 47 48 49 50
000
ASUS43 KMPX 161110
RWRMN
WEATHER ROUNDUP FOR MINNESOTA
NATIONAL WEATHER SERVICE TWIN CITIES/CHANHASSEN MN
500 AM CST MON JAN 16 2017


NOTE: "FAIR" INDICATES FEW OR NO CLOUDS BELOW 12,000 FEET WITH NO
SIGNIFICANT WEATHER AND/OR OBSTRUCTIONS TO VISIBILITY. N/A MEANS
CURRENT SKY AND/OR WEATHER CONDITIONS ARE NOT AVAILABLE.

MNZ060>063-068>070-161200-
   Twin Cities Metro

CITY           SKY/WX    TMP DP  RH WIND       PRES   REMARKS
TWIN CITIES    CLOUDY    17  13  84 S7        30.18F WCI   8
ST PAUL        CLOUDY    13  12  96 E3        30.20F FOG
CRYSTAL        PTCLDY    12   8  84 S3        30.16F FOG
BLAINE         PTCLDY    16  16 100 S6        30.16F WCI   7
LAKEVILLE        N/A     10  10 100 CALM      30.18S FOG
EDEN PRAIRIE   CLOUDY    17  12  80 S5        30.16F WCI  10
SOUTH ST PAUL  CLOUDY    12  10  90 CALM      30.18F
LAKE ELMO      FAIR      14  12  92 CALM      30.18F FOG
$$
MNZ001>005-007-008-013>017-022>024-027-028-161200-
   Northwest Minnesota

CITY           SKY/WX    TMP DP  RH WIND       PRES   REMARKS
BEMIDJI        CLOUDY     8   6  91 CALM      30.03F
HALLOCK        CLOUDY     7   1  78 S10       30.00F WCI  -8
ROSEAU         CLOUDY     7   1  78 S9        29.99F WCI  -7
WARROAD        CLOUDY    10   7  85 SW5       30.00F WCI   2
THIEF RVR FALL CLOUDY     7   4  87 S10       30.03F WCI  -8
CROOKSTON      CLOUDY     7   5  92 S9        30.06F WCI  -7
FOSSTON        CLOUDY    12  10  92 S10       30.04F WCI  -1
DETROIT LAKES  CLOUDY    12  10  92 S9        30.07F FOG     WCI   0
MOORHEAD       CLOUDY    12   9  85 MISG      30.08F
PARK RAPIDS    CLOUDY     4  -2  76 S8        30.06F HAZE    WCI  -9
MAHNOMEN       FAIR      15  13  88 S10       30.05S WCI   3
$$
MNZ006-009>011-018-025>026-161200-
   North Central Minnesota

CITY           SKY/WX    TMP DP  RH WIND       PRES   REMARKS
BAUDETTE       CLOUDY     5   3  91 S6        30.00F WCI  -6
FLAG ISLAND    CLOUDY     7   3  85 S9        30.00S WCI  -7
INTL FALLS     CLOUDY     3   1  91 S3        30.03F
WASKISH        CLOUDY    14  10  85 CALM      30.03S
BIG FORK       CLOUDY    12  10  92 S5        30.04F FOG     WCI   4
LONGVILLE      CLOUDY     0  -2  92 CALM      30.09S
GRAND RAPIDS   CLOUDY    13  11  92 S8        30.09F FOG     WCI   2
CRANE LAKE     CLOUDY     9   7  92 CALM      30.07S
ORR            CLOUDY    16  10  79 CALM      30.03S
COOK           CLOUDY     7   3  85 CALM      30.06F
WALKER         FAIR      11   8  90 S5        30.05F WCI   2
$$
MNZ012-019>021-037-161200-
   Northeast Minnesota

CITY           SKY/WX    TMP DP  RH WIND       PRES   REMARKS
DULUTH         CLOUDY    16  14  92 W12       30.09F FOG     WCI   3
ELY            CLOUDY     9   9 100 CALM      30.06F
HIBBING        CLOUDY    -4  -7  87 NW3       30.07F FOG
EVELETH        CLOUDY     2  -3  82 CALM      30.09F
DULUTH HARBOR  CLOUDY    18  14  86 CALM      30.16S FOG
TWO HARBORS    CLOUDY    16  10  79 CALM      30.09S HAZE
SILVER BAY     CLOUDY    12  10  92 CALM      30.07F FOG
GRAND MARAIS     N/A     23  14  68 W6        30.10S WCI  16
G MARAIS ARPRT CLOUDY    16   9  73 W6        30.03S WCI   7
$$
MNZ029>031-032-039>041-046>048-054>057-064-161200-
   West Central Minnesota

CITY           SKY/WX    TMP DP  RH WIND       PRES   REMARKS
FERGUS FALLS   CLOUDY    16  12  86 SE6       30.15S WCI   7
WHEATON        CLOUDY     9   5  85 E5        30.13R WCI   0
MORRIS         CLOUDY    10   7  85 SE9       30.11R FOG     WCI  -2
ALEXANDRIA     CLOUDY    10   9  95 S5        30.10S FOG     WCI   2
ELBOW LAKE     FAIR      14  13  94 SE8       30.10S FOG     WCI   3
WADENA         CLOUDY     1  -2  85 SE3       30.09S
GLENWOOD       CLOUDY    16  14  93 CALM      30.12R
APPLETON       CLOUDY    10   7  85 CALM      30.13R
ORTONVILLE     CLOUDY    10   9  92 CALM      30.11R
MADISON        CLOUDY    14  10  85 CALM      30.12R
WILLMAR        FAIR      16  12  86 CALM      30.14R
$$
MNZ033>034-036-042>043-049>051-058-059-161200-
   Central Minnesota

CITY           SKY/WX    TMP DP  RH WIND       PRES   REMARKS
ST CLOUD       CLOUDY    10   8  92 SE3       30.15R FOG
SAUK CENTRE    FAIR       8   6  92 CALM      30.13R FOG
PAYNESVILLE    CLOUDY    17  15  91 CALM      30.14R
AITKIN         CLOUDY     3  -2  78 CALM      30.10F
PINE RIVER     CLOUDY     1   0  92 CALM      30.13F FOG
BRAINERD       CLOUDY     2  -1  88 CALM      30.12F FOG
STAPLES        CLOUDY     1  -2  85 CALM      30.11R FOG
LONG PRAIRIE   FAIR       1   0  92 E5        30.12S FOG     WCI  -8
LITTLE FALLS   CLOUDY     3   0  85 CALM      30.15R
LITCHFIELD     CLOUDY    16  16 100 CALM      30.14S
BUFFALO        CLOUDY    18  15  88 CALM      30.16S
MAPLE LAKE     CLOUDY    18  17  95 CALM      30.16R
HUTCHINSON     CLOUDY    15  13  94 CALM      30.15F
$$
MNZ037-044-045-052-053-161200-
   East Central Minnesota

CITY           SKY/WX    TMP DP  RH WIND       PRES   REMARKS
PRINCETON      CLOUDY    10   9  92 CALM      30.16R FOG
MORA           CLOUDY     1  -4  78 CALM      30.18R
CAMBRIDGE      CLOUDY    16  10  79 CALM      30.16R HAZE
RUSH CITY        N/A      9   7  92 CALM      30.19R
MOOSE LAKE     CLOUDY     3   0  85 CALM      30.13S
HINCKLEY       FAIR       1  -2  85 CALM      30.17S
CLOQUET        CLOUDY    16  12  86 SW6       30.11S FOG     WCI   7
MCGREGOR       CLOUDY    10   9  92 CALM      30.12F
$$
MNZ071>073-080-081-089-090-097-098-161200-
   Southwest Minnesota

CITY           SKY/WX    TMP DP  RH WIND       PRES   REMARKS
MONTEVIDEO     CLOUDY    18  14  86 CALM      30.14S
GRANITE FALLS  CLOUDY    19  16  86 SE7       30.14S WCI  10
CANBY            N/A     28  20  71 CALM      30.11S
MARSHALL       CLOUDY    22  16  78 S9        30.11F WCI  12
REDWOOD FALLS  CLOUDY    18  14  84 S7        30.14S WCI   9
OLIVIA         CLOUDY    19  16  86 S5        30.13S WCI  13
PIPESTONE      CLOUDY    23  19  86 CALM      30.08F
WINDOM         CLOUDY    27  21  80 CALM      30.11F
WORTHINGTON    CLOUDY    26  23  88 S6        30.10F WCI  19
JACKSON        CLOUDY    27  21  80 SE7       30.11F WCI  19
TRACY          CLOUDY    24  19  84 SW7       30.11F WCI  15
SLAYTON        CLOUDY    17  15  90 CALM      30.10F
$$
MNZ065>067-074>077-082>085-091>093-161200-
   South Central Minnesota

CITY           SKY/WX    TMP DP  RH WIND       PRES   REMARKS
MANKATO        CLOUDY    19  16  88 SE6       30.16F WCI  11
NEW ULM        CLOUDY    21  18  86 CALM      30.14F
ST JAMES       CLOUDY    23  21  93 CALM      30.14F
FAIRMONT       CLOUDY    27  24  89 S10       30.13F WCI  17
GLENCOE        PTCLDY    19  17  92 CALM      30.15S
FARIBAULT      CLOUDY    19  16  86 S3        30.16F
OWATONNA       CLOUDY    21  16  79 SE5       30.16S WCI  15
WASECA         CLOUDY    19  16  86 E5        30.17F WCI  13
ALBERT LEA     CLOUDY    27  23  86 SE8       30.14F WCI  18
$$
MNZ078>079-086>088-094>096-161200-
   Southeast Minnesota

CITY           SKY/WX    TMP DP  RH WIND       PRES   REMARKS
ROCHESTER      CLOUDY    23  16  74 S9        30.16F WCI  13
RED WING       CLOUDY    12  10  92 CALM      30.20F FOG
STANTON        PTCLDY    18  12  79 CALM      30.17F
DODGE CENTER   CLOUDY    19  14  79 CALM      30.15F
WINONA         CLOUDY    14  12  92 CALM      30.23F
AUSTIN         MIX PCPN  27  21  80 S3        30.15F
PRESTON        MIX PCPN  24  20  83 S8        30.17F WCI  15
$$
ABBREVIATIONS USED IN REMARKS
   TC - TEMPERATURES IN CELSIUS
  WCI - WIND CHILL INDEX
   HX - HEAT INDEX
  VSB - VISIBILITY
$$



USA.gov is the U.S. government's official web portal to all federal, state and local government web resources and services.